User: anonymous   Login
Location: Caltech
(34.1382°N, 118.1253°W)
Time: 21:03:31
(UTC-07:00)
Language:

Cosmos 1943 Rocket - Orbit

View from above orbital plane
View from above orbital plane
View from above satellite
View from above satellite

Ground track
Ground track

The orbit data is extracted from the following two-line orbital elements,

1 19120U 88039B   17231.88076243 -.00000145  00000-0 -46134-4 0  9997
2 19120  71.0129 190.3409 0019721  90.6815 269.6569 14.19167373515422
Epoch (UTC): 19 August 2017 21:08:17
Eccentricity: 0.0019721
inclination: 71.0129°
perigee height: 814 km
apogee height: 842 km
right ascension of ascending node: 190.3409°
argument of perigee: 90.6815°
revolutions per day: 14.19167373
mean anomaly at epoch: 269.6569°
orbit number at epoch: 51542

The dashed part of the orbit path shows where the satellite is in the earth's shadow,  

DLR